Location: Normandy Village
(37.8755°N, 122.2655°W)
Time: 07:55:29
(UTC+00:00)

Shenzhou-11 Module - Visible Passes

Search period start: 08 December 2019 00:00
Search period end: 18 December 2019 00:00
Orbit: 307 x 321 km, 42.8° (Epoch: 07 December)

Date Brightness Start Highest point End Pass type
(mag) Time Alt. Az. Time Alt. Az. Time Alt. Az.
08 Dec 3.0 01:40:32 10° WNW 01:42:58 28° N 01:44:32 17° NE visible
09 Dec 3.0 01:53:47 10° WNW 01:56:11 27° N 01:57:00 23° NNE visible
10 Dec 2.6 02:06:51 10° WNW 02:09:22 32° N 02:09:29 32° NNE visible
11 Dec 2.4 02:19:46 10° WNW 02:22:02 43° NNW 02:22:02 43° NNW visible
12 Dec 2.7 02:32:40 10° WNW 02:34:40 44° WNW 02:34:40 44° WNW visible
13 Dec 3.9 02:45:42 10° W 02:47:27 27° WSW 02:47:27 27° WSW visible
14 Dec 1.6 01:23:15 10° WNW 01:26:00 78° NNE 01:28:43 10° ESE visible
14 Dec 4.9 02:59:16 10° WSW 03:00:27 14° SW 03:00:27 14° SW visible
15 Dec 2.8 01:36:08 10° WNW 01:38:46 44° SSW 01:41:23 10° SE visible
16 Dec 4.6 01:49:22 10° W 01:51:24 19° SW 01:53:26 10° SSE visible
